GW4058 Weather Reports


time (UTC)temp
C
wind
direction
speed
KPH
gust
KPH
rain 1hr
cm
rain 24hr
cm
rain mn
cm
humidity
%
barometer
mb
20260504214429 22 8.0 17.7 0.00 0.03 0.03 39 1009.6
20260504213543 23 4.8 12.9 0.00 0.03 0.03 39 1009.7
20260504212523 23 4.8 11.3 0.00 0.03 0.03 39 1009.6
20260504211518 23 3.2 6.4 0.00 0.03 0.03 39 1009.7
20260504210518 23 4.8 9.7 0.00 0.03 0.03 39 1009.7
20260504205518 23 4.8 9.7 0.00 0.03 0.03 41 1009.7
20260504204431 23 3.2 12.9 0.00 0.03 0.03 40 1009.7
20260504203521 23 4.8 11.3 0.00 0.03 0.03 40 1009.7
20260504202521 23 3.2 9.7 0.00 0.03 0.03 40 1009.9
20260504201540 23 4.8 16.1 0.00 0.03 0.03 41 1010.2
20260504200519 23 8.0 14.5 0.00 0.03 0.03 40 1010.2
20260504195519 22 4.8 12.9 0.00 0.03 0.03 41 1010.3
20260504194536 22 6.4 14.5 0.00 0.03 0.03 41 1010.4
20260504193520 22 6.4 11.3 0.00 0.03 0.03 40 1010.7
20260504192520 22 4.8 8.0 0.00 0.03 0.03 41 1010.9
20260504191517 22 6.4 12.9 0.00 0.03 0.03 42 1011.1
20260504190519 21 8.0 14.5 0.00 0.03 0.03 43 1011.2
20260504185517 21 9.7 14.5 0.00 0.03 0.03 43 1011.4
20260504184525 21 6.4 9.7 0.00 0.03 0.03 43 1011.6
20260504183521 21 8.0 12.9 0.00 0.03 0.03 42 1011.7
20260504182517 21 8.0 16.1 0.00 0.03 0.03 42 1011.8
20260504181517 21 4.8 9.7 0.00 0.03 0.03 43 1012.0
20260504180518 21 4.8 9.7 0.00 0.03 0.03 43 1012.2
20260504175525 20 4.8 9.7 0.00 0.03 0.03 44 1012.2
20260504174524 21 6.4 9.7 0.00 0.03 0.03 43 1012.2
20260504173522 21 9.7 17.7 0.00 0.03 0.03 42 1012.4
20260504172524 20 9.7 16.1 0.00 0.03 0.03 42 1012.4
20260504171519 20 8.0 14.5 0.00 0.03 0.03 43 1012.6
20260504170516 20 9.7 14.5 0.00 0.03 0.03 43 1012.7
20260504150520 18 8.0 14.5 0.00 0.00 0.00 44 1013.9
20260504140522 16 6.4 12.9 0.00 0.00 0.00 49 1014.0
20260504130517 13 4.8 9.7 0.00 0.00 0.00 57 1014.5
20260504110558 7 3.2 8.0 0.00 0.00 0.00 81 1014.9
20260504100520 7 1.6 8.0 0.00 0.00 0.00 77 1015.0
20260504081520 6 0.0 3.2 0.00 0.00 0.00 86 1015.3
20260504080522 5 0.0 0.0 0.00 0.00 0.00 86 1015.4
20260504050542 3 0.0 0.0 0.00 0.00 0.00 87 1015.9
20260504045522 3 0.0 1.6 0.00 0.00 0.00 86 1015.9
20260504044542 3 0.0 1.6 0.00 0.00 0.00 85 1015.8
20260504043516 4 0.0 0.0 0.00 0.00 0.00 84 1015.8
20260504042518 4 0.0 3.2 0.00 0.00 0.00 84 1015.7
20260504041520 3 0.0 4.8 0.00 0.00 0.00 85 1015.8
20260504040517 4 1.6 4.8 0.00 0.00 0.00 83 1015.7
20260504035524 4 1.6 6.4 0.00 0.00 0.00 82 1015.7
20260504034518 4 1.6 6.4 0.00 0.00 0.00 79 1015.6
20260504033518 5 1.6 6.4 0.00 0.00 0.00 78 1015.6
20260504032521 5 4.8 6.4 0.00 0.00 0.00 76 1015.4
20260504031518 5 4.8 8.0 0.00 0.00 0.00 78 1015.3
20260504030521 5 3.2 8.0 0.00 0.00 0.00 75 1015.2
20260504025519 5 1.6 6.4 0.00 0.00 0.00 73 1015.2
20260504024519 6 1.6 6.4 0.00 0.00 0.00 73 1015.2
20260504023542 6 3.2 6.4 0.00 0.00 0.00 72 1015.2
20260504022522 6 1.6 4.8 0.00 0.00 0.00 69 1015.2
20260504021536 6 4.8 8.0 0.00 0.00 0.00 65 1015.1
20260504020519 7 3.2 6.4 0.00 0.00 0.00 69 1015.1
20260504015604 7 3.2 8.0 0.00 0.00 0.00 65 1015.0
20260504014537 7 1.6 6.4 0.00 0.00 0.00 63 1015.0
20260504013517 8 3.2 8.0 0.00 0.00 0.00 63 1015.1
20260504012537 8 1.6 6.4 0.00 0.00 0.00 62 1015.0
20260504011526 9 4.8 8.0 0.00 0.00 0.00 55 1014.8
20260504010522 9 4.8 6.4 0.00 0.00 0.00 54 1014.8
20260504005526 10 4.8 6.4 0.00 0.00 0.00 54 1014.7
20260504004519 11 3.2 6.4 0.00 0.00 0.00 48 1014.6
20260504003541 11 1.6 4.8 0.00 0.00 0.00 44 1014.5
20260504002518 11 3.2 6.4 0.00 0.00 0.00 45 1014.4
20260504001522 13 6.4 9.7 0.00 0.00 0.00 43 1014.3
20260504000522 13 4.8 8.0 0.00 0.00 0.00 39 1014.2
20260503235519 15 3.2 11.3 0.00 0.00 0.00 37 1014.2
20260503234537 15 8.0 14.5 0.00 0.00 0.00 36 1014.0
20260503233522 15 9.7 14.5 0.00 0.00 0.00 35 1014.0
20260503232522 15 9.7 14.5 0.00 0.00 0.00 35 1013.9
20260503231606 15 9.7 14.5 0.00 0.00 0.00 35 1013.7
20260503230516 15 9.7 14.5 0.00 0.00 0.00 35 1013.7
20260503225517 16 9.7 14.5 0.00 0.00 0.00 35 1013.7
20260503224523 16 9.7 19.3 0.00 0.00 0.00 35 1013.8
20260503223518 15 9.7 20.9 0.00 0.00 0.00 34 1013.8
20260503222522 15 9.7 19.3 0.00 0.00 0.00 34 1013.8
20260503221520 15 14.5 24.1 0.00 0.00 0.00 35 1013.7
20260503220520 15 11.3 17.7 0.00 0.00 0.00 35 1013.8
20260503215539 15 16.1 20.9 0.00 0.00 0.00 35 1013.8